Eastsound, WA
on Monday, February 4, 2013

Monday
Previous Day Next Day
Daily Summary
 ActualAverage (KBLI)Record (KBLI)
Temperature
Mean Temperature °F 40°F  
Max Temperature 46°F 47°F 64°F (1963)
Min Temperature 42°F 33°F 16°F (1989)
Degree Days
Heating Degree Days 21 25  
Month to date heating degree days 100  
Cooling Degree Days 0 0  
Month to date cooling degree days 0  
Year to date cooling degree days 0  
Moisture
Dew Point 41°F   
Average Humidity 86    
Maximum Humidity 93    
Minimum Humidity 76    
Precipitation
Precipitation 0.00 in 0.12 in 1.41 in (1965)
Month to date precipitation 0.47  
Year to date precipitation 5.14  
Wind
Wind Speed 7 mph   
Max Wind Speed 15 mph   
Max Gust Speed 20 mph   
Visibility 10 miles   
Events Rain   

Key: T is trace of precipitation, MM is missing value
Source: NWS Daily Summary
Time(PST)TemperatureDew PointHumidity Pressure Visibility Wind DirectionWind SpeedGust SpeedPrecipitationEvents Conditions
12:15 AM 44.6°F 41.0°F 87% 30.15 in 10.0 miles South 6.9 mph - N/A   Overcast
12:35 AM 44.6°F 41.0°F 87% 30.14 in 10.0 miles South 10.4 mph - N/A   Mostly Cloudy
12:55 AM 44.6°F 41.0°F 87% 30.15 in 10.0 miles SSW 10.4 mph - N/A   Partly Cloudy
1:15 AM 44.6°F 41.0°F 87% 30.15 in 10.0 miles SSW 9.2 mph - N/A   Clear
3:15 AM 44.6°F 42.8°F 93% 30.15 in 10.0 miles South 9.2 mph - N/A   Overcast
3:35 AM 44.6°F 42.8°F 93% 30.12 in 10.0 miles South 8.1 mph - N/A   Scattered Clouds
4:15 AM 44.6°F 42.8°F 93% 30.13 in 10.0 miles South 9.2 mph - N/A   Mostly Cloudy
4:35 AM 44.6°F 42.8°F 93% 30.13 in 10.0 miles South 8.1 mph - N/A   Overcast
5:15 AM 44.6°F 42.8°F 93% 30.11 in 10.0 miles South 15.0 mph - N/A   Mostly Cloudy
6:15 AM 44.6°F 42.8°F 93% 30.10 in 10.0 miles South 9.2 mph - N/A   Mostly Cloudy
6:35 AM 44.6°F 41.0°F 87% 30.11 in 10.0 miles South 8.1 mph - N/A   Mostly Cloudy
6:55 AM 44.6°F 41.0°F 87% 30.10 in 10.0 miles South 11.5 mph 17.3 mph N/A   Mostly Cloudy
7:15 AM 44.6°F 41.0°F 87% 30.10 in 10.0 miles South 10.4 mph - N/A   Overcast
7:35 AM 44.6°F 41.0°F 87% 30.10 in 10.0 miles South 8.1 mph - N/A   Overcast
7:55 AM 44.6°F 41.0°F 87% 30.10 in 10.0 miles South 9.2 mph - N/A   Mostly Cloudy
8:15 AM 44.6°F 41.0°F 87% 30.10 in 10.0 miles SSE 4.6 mph - N/A   Overcast
8:35 AM 44.6°F 41.0°F 87% 30.11 in 10.0 miles SSE 8.1 mph - N/A   Overcast
9:15 AM 44.6°F 41.0°F 87% 30.11 in 10.0 miles SSE 5.8 mph - N/A   Overcast
9:35 AM 44.6°F 41.0°F 87% 30.11 in 10.0 miles South 5.8 mph - N/A   Overcast
9:55 AM 44.6°F 41.0°F 87% 30.11 in 10.0 miles South 6.9 mph - N/A   Overcast
10:15 AM 44.6°F 41.0°F 87% 30.11 in 10.0 miles South 8.1 mph - N/A   Overcast
10:35 AM 46.4°F 41.0°F 81% 30.12 in 10.0 miles South 9.2 mph 19.6 mph N/A   Overcast
10:55 AM 46.4°F 41.0°F 81% 30.11 in 10.0 miles South 8.1 mph 16.1 mph N/A   Overcast
11:15 AM 46.4°F 41.0°F 81% 30.12 in 10.0 miles SSE 5.8 mph - N/A   Overcast
11:35 AM 46.4°F 41.0°F 81% 30.11 in 10.0 miles South 6.9 mph - N/A   Overcast
11:55 AM 46.4°F 41.0°F 81% 30.11 in 10.0 miles South 8.1 mph - N/A   Overcast
12:15 PM 46.4°F 41.0°F 81% 30.10 in 10.0 miles SSE 5.8 mph - N/A   Overcast
12:55 PM 46.4°F 41.0°F 81% 30.08 in 10.0 miles South 8.1 mph - N/A   Overcast
1:15 PM 46.4°F 41.0°F 81% 30.07 in 10.0 miles South 6.9 mph - N/A   Overcast
1:35 PM 46.4°F 41.0°F 81% 30.06 in 10.0 miles South 8.1 mph - N/A   Overcast
1:55 PM 46.4°F 41.0°F 81% 30.05 in 10.0 miles South 9.2 mph 16.1 mph N/A   Mostly Cloudy
2:15 PM 46.4°F 41.0°F 81% 30.05 in 10.0 miles South 5.8 mph - N/A   Scattered Clouds
2:35 PM 46.4°F 41.0°F 81% 30.04 in 10.0 miles South 9.2 mph - N/A   Scattered Clouds
2:55 PM 46.4°F 41.0°F 81% 30.03 in 10.0 miles South 4.6 mph - N/A   Partly Cloudy
3:15 PM 46.4°F 41.0°F 81% 30.02 in 10.0 miles SSE 4.6 mph - N/A   Partly Cloudy
3:35 PM 46.4°F 39.2°F 76% 30.01 in 10.0 miles South 8.1 mph - N/A   Partly Cloudy
3:55 PM 46.4°F 41.0°F 81% 30.01 in 10.0 miles South 5.8 mph - N/A   Scattered Clouds
4:15 PM 46.4°F 41.0°F 81% 30.01 in 10.0 miles SSW 8.1 mph - N/A   Scattered Clouds
4:55 PM 46.4°F 41.0°F 81% 29.99 in 10.0 miles Calm Calm - N/A   Partly Cloudy
5:15 PM 44.6°F 41.0°F 87% 29.99 in 10.0 miles Calm Calm - N/A   Clear
5:35 PM 44.6°F 41.0°F 87% 29.99 in 10.0 miles Calm Calm - N/A   Mostly Cloudy
5:55 PM 44.6°F 41.0°F 87% 29.98 in 10.0 miles Calm Calm - N/A   Overcast
6:15 PM 44.6°F 41.0°F 87% 29.97 in 10.0 miles Calm Calm - N/A   Mostly Cloudy
6:35 PM 44.6°F 41.0°F 87% 29.96 in 10.0 miles Calm Calm - N/A   Clear
6:55 PM 46.4°F 41.0°F 81% 29.95 in 10.0 miles ESE 3.5 mph - N/A   Clear
7:15 PM 46.4°F 41.0°F 81% 29.95 in 8.0 miles ENE 5.8 mph - N/A Rain Light Rain
7:35 PM 44.6°F 41.0°F 87% 29.93 in 7.0 miles Calm Calm - N/A Rain Light Rain
7:55 PM 44.6°F 41.0°F 87% 29.92 in 9.0 miles Calm Calm - N/A Rain Light Rain
8:15 PM 44.6°F 42.8°F 93% 29.92 in 9.0 miles NNE 3.5 mph - N/A Rain Light Rain
8:35 PM 44.6°F 41.0°F 87% 29.90 in 9.0 miles North 4.6 mph - N/A Rain Light Rain
8:55 PM 44.6°F 41.0°F 87% 29.89 in 10.0 miles ENE 3.5 mph - N/A   Clear
9:15 PM 44.6°F 41.0°F 87% 29.88 in 9.0 miles Calm Calm - N/A   Clear
9:55 PM 42.8°F 41.0°F 93% 29.87 in 7.0 miles East 3.5 mph - N/A   Clear
10:15 PM 42.8°F 41.0°F 93% 29.86 in 7.0 miles Calm Calm - N/A   Clear
10:35 PM 44.6°F 41.0°F 87% 29.86 in 10.0 miles Calm Calm - N/A   Partly Cloudy
10:55 PM 42.8°F 41.0°F 93% 29.83 in 9.0 miles ENE 6.9 mph - N/A   Clear
11:15 PM 42.8°F 41.0°F 93% 29.82 in 8.0 miles NE 6.9 mph - N/A   Clear
11:35 PM 44.6°F 41.0°F 87% 29.82 in 10.0 miles Calm Calm - N/A   Clear
11:55 PM 42.8°F 41.0°F 93% 29.82 in 10.0 miles Calm Calm - N/A   Clear
Moon Phase
Feb. 04 Feb. 10 Feb. 17 Feb. 25 Mar. 04
Sunrise:07:36 AM (PST) Moon Rise:02:25 AM (PST)2/4
Sunset:05:15 PM (PST) Moon Set:11:35 AM (PST)2/4

Copyright © 2014 The Weather Underground, Inc.